EHI
0 0 0 0 0 0 0 0 0 0 0 0 0 0 0 0 0 0 0 0 0 0 0 0 0 0 0 0 0 0 0 0 0 0 0 0 0 0
0 0 0 0 0 0 0 0 0 0 0 0 0 0 0 0 0 0 0 0 0 0 0 0 0 0 0 0 0 0 0 0 0 0 0 0 0 0
0 0 0 0 0 0 0 0 0 0 0 0 0 0 0 0 0 0 0 0 0 0 0 0 0 0 0 0 0 0 0 0 0 0 0 0 0 0
0 0 0 0 0 0 0 0 0 0 0 0 0 0 0 0 0 0 0 0 0 0 0 0 0 0 0 0 0 0 0 0 0 0 0 0 0 0
0 0 0 0 0 0 0 0 0 0 0 0 0 0 0 0 0 0 0 0 0 0 0 0 0 0 0 0 0 0 0 0 0 0 0 0 0 0
0 0 0 0 0 0 0 0 0 0 0 0 0 0 0 0 0 0 0 0 0 0 0 0 0 0 0 0 0 0 0 0 0 0 0 0 0 0
0 0 0 0 0 0 0 0 0 0 0 0 0 0 0 0 0 0 0 0 0 0 0 0 0 0 0 0 0 0 0 0 0 0 0 0 0 0
0 0 0 0 0 0 0 0 0 0 0 0 0 0 0 0 0 0 0 0 0 0 0 0 0 0 0 0 0 0 0 0 0 0 0 0 0 0
0 0 0 0 0 0 0 0 0 0 0 0 0 0 0 0 0 0 0 0 0 0 0 0 0 0 0 0 0 0 0 0 0 0 0 0 0 0
0 0 0 0 0 0 0 0 0 0 0 0 0 0 0 0 0 0 0 0 0 0 0 0 0 0 0 0 0 0 0 0 0 0 0 0 0 0
0 0 0 0 0 0 0 0 0 0 0 0 0 0 0 0 0 0 0 0 0 0 0 0 0 0 0 0 0 0 0 0 0 0 0 0 0 0
0 0 0 0 0 0 0 0 0 0 0 0 0 0 0 0 0 0 0 0 0 0 0 0 0 0 0 0 0 0 0 0 0 0 0 0 0 0
0 0 0 0 0 0 0 0 0 0 0 0 0 0 0 0 0 0 0 0 0 0 0 0 0 0 0 0 0 0 0 0 0 0 0 0 0 0
0 0 0 0 0 0 0 0 0 0 0 0 0 0 0 0 0 0 0 0 0 0 0 0 0 0 0 0 0 0 0 0 0 0 0 0 0 0
0 0 0 0 0 0 0 0 0 0 0 0 0 0 0 0 0 0 0 0 0 0 0 0 0 0 0 0 0 0 0 0 0 0 0 0 0 0
0 0 0 0 0 0 0 0 0 0 0 0 0 0 0 0 0 0 0 0 0 0 0 0 0 0 0 0 0 0 0 0 0 0 0 0 0 0
0 0 0 0 0 0 0 0 0 0 0 0 0 0 0 0 0 0 0 0 0 0 0 0 0 0 0 0 0 0 0 0 0 0 0 0 0 0
0 0 0 0 0 0 0 0 0 0 0 0 0 0 0 0 0 0 0 0 0 0 0 0 0 0 0 0 0 0 0 0 0 0 0 0 0 0
0 0 0 0 0 0 0 0 0 0 0 0 0 0 0 0 0 0 0 0 0 0 0 0 0 0 0 0 0 0 0 0 0 0 0 0 0 0
0 0 0 0 0 0 0 0 0 0 0 0 0 0 0 0 0 0 0 0 0 0 0 0 0 0 0 0 0 0 0 0 0 0 0 0 0 0
0 0 0 0 0 0 0 0 0 0 0 0 0 0 0 0 0 0 0 0 0 0 0 0 0 0 0 0 0 0 0 0 0 0 0 0 0 0
0 0 0 0 0 0 0 0 0 0 0 0 0 0 0 0 0 0 0 0 0 0 0 0 0 0 0 0 0 0 0 0 0 0 0 0 0 0
0 0 0 0 0 0 0 0 0 0 0 0 0 0 0 0 0 0 0 0 0 0 0 0 0 0 0 0 0 0 0 0 0 0 0 0 0 0
Wind_Speed
5 6 6 5 5 5 5 5 6 7 8 6 5 5 4 4 6 6 6 11 14 14 14 13 12 11 12 12 12 12 11 11 10 11 11 11 11 10
3 4 5 4 4 4 4 5 6 7 7 4 5 3 4 4 6 6 7 11 13 14 14 13 12 12 12 13 12 12 12 12 12 12 12 12 11 11
2 3 4 4 3 4 4 4 5 5 8 5 3 3 4 5 4 5 5 6 7 13 14 14 13 13 13 13 13 13 13 13 13 13 13 12 12 11
3 3 3 3 4 3 4 5 5 6 7 7 3 3 4 6 5 5 5 5 5 10 13 13 13 14 14 14 14 14 14 13 13 13 13 13 12 11
3 3 3 3 4 3 3 4 4 5 5 5 4 3 3 3 4 4 4 4 5 7 10 12 14 14 14 15 15 15 14 14 13 13 13 13 13 12
3 3 3 3 4 4 3 4 4 5 5 4 3 2 3 2 3 3 4 4 5 4 8 9 11 14 15 15 15 14 14 14 15 14 14 12 12 13
4 4 4 4 5 5 4 4 4 4 4 4 4 3 3 2 3 3 4 3 4 4 4 5 6 6 8 12 14 14 15 15 15 15 15 14 13 12
5 5 5 5 6 8 8 7 6 5 5 4 5 5 5 4 3 3 4 4 5 3 4 5 5 6 6 6 12 15 16 16 16 16 16 15 14 13
5 5 5 5 7 5 7 8 8 9 8 6 5 5 5 4 5 5 6 6 6 4 4 6 4 6 5 7 14 15 15 16 17 16 16 15 14 13
5 5 5 5 6 7 5 5 6 6 7 5 5 6 5 5 6 7 8 7 4 4 4 6 4 5 5 5 12 15 15 16 17 16 15 15 14 14
6 6 6 5 10 12 7 6 7 6 8 10 11 10 11 10 7 4 4 4 5 4 4 4 3 3 3 5 8 14 14 15 15 15 15 15 14 13
5 5 9 9 12 13 7 6 7 7 7 8 8 8 7 7 8 5 4 5 4 4 4 3 3 2 3 3 3 5 7 12 14 15 15 14 14 8
5 5 6 13 15 15 12 7 9 10 7 6 6 5 5 4 4 4 4 5 5 6 4 3 3 3 4 3 3 4 5 4 5 8 12 15 15 11
5 5 7 14 15 14 10 11 14 11 5 4 5 5 4 4 4 5 5 6 6 7 6 5 4 5 4 4 4 3 3 4 4 4 5 10 12 14
6 12 14 16 14 10 11 14 11 5 4 4 5 5 4 4 4 4 4 4 4 5 5 6 5 5 5 5 4 4 3 3 5 5 5 5 5 6
7 9 13 13 10 10 9 7 5 5 5 5 5 5 4 4 4 3 4 3 4 4 3 4 5 6 5 5 5 5 4 4 5 5 4 4 4 4
8 5 4 5 5 5 5 4 4 5 5 5 5 5 5 5 4 3 3 4 4 4 4 2 2 2 3 4 4 5 4 4 4 5 5 4 4 5
8 5 5 5 6 6 7 6 5 5 5 5 5 5 5 5 5 4 3 4 5 4 4 3 1 1 1 2 3 5 4 4 4 4 4 4 5 4
5 5 5 6 6 6 6 6 6 6 6 5 5 5 5 5 5 5 4 4 4 4 4 3 3 3 4 4 2 3 4 3 4 4 4 3 4 5
4 5 6 6 6 6 7 7 6 6 6 6 5 5 5 5 5 5 4 4 4 4 4 3 3 4 5 4 2 1 4 4 4 4 3 2 2 4
5 5 6 6 6 6 7 7 7 6 6 6 5 5 5 4 5 5 5 6 5 4 4 4 3 3 1 1 1 1 1 3 4 4 4 4 3 3
6 6 6 6 7 7 7 6 6 6 6 6 6 5 5 4 5 5 5 5 4 4 4 4 2 1 1 2 2 2 2 3 4 6 5 4 4 5
6 6 6 7 6 6 6 7 7 7 6 6 6 5 5 5 4 4 5 4 4 4 4 3 2 1 0 1 2 3 4 4 3 3 3 4 5 5
Wind_Direction
238 237 236 230 225 221 217 213 223 238 238 226 221 214 210 206 205 205 211 217 219 224 231 235 232 233 231 232 234 238 241 243 246 245 242 240 243 250
250 244 245 243 235 227 225 223 225 235 246 226 221 216 209 216 214 211 218 220 223 225 228 230 227 228 228 229 229 233 235 234 237 238 241 240 241 246
293 267 260 255 248 240 230 229 231 232 247 246 226 221 210 219 222 221 223 219 225 226 227 227 227 228 230 229 229 232 233 231 231 233 238 238 241 242
307 299 294 288 265 260 247 240 237 235 241 250 242 232 229 219 215 223 230 229 229 231 228 229 229 230 232 232 231 232 230 228 229 230 234 234 236 236
325 308 305 304 282 268 263 259 251 248 243 249 248 239 241 225 220 230 231 235 239 235 233 235 235 235 236 237 235 230 227 226 226 227 230 232 231 232
344 338 334 319 304 291 272 269 267 255 249 252 253 250 248 235 220 229 246 234 237 232 236 239 240 239 238 240 235 228 224 225 226 227 225 226 225 227
346 344 345 340 323 319 311 293 282 267 258 251 253 255 244 229 230 227 249 260 254 231 233 232 232 233 230 235 233 227 225 225 226 228 225 220 220 223
352 348 345 345 347 342 335 323 306 284 269 253 247 252 247 244 237 242 245 255 257 222 226 244 226 235 234 232 234 230 226 227 228 226 222 219 218 219
350 344 344 349 352 344 337 335 325 312 298 279 262 256 252 244 238 238 237 243 253 231 233 255 232 241 237 239 237 232 230 228 226 223 219 217 217 218
354 349 347 346 345 341 334 327 315 312 306 293 270 261 258 249 238 240 241 247 261 240 218 251 242 245 245 236 236 232 232 229 223 218 217 218 218 219
353 350 344 341 340 341 335 319 312 309 313 305 297 290 287 283 275 265 250 247 264 252 220 231 244 260 256 242 235 233 234 230 224 218 216 216 216 217
341 341 346 342 339 338 331 318 311 307 308 307 298 293 283 272 270 247 234 242 259 260 222 213 240 241 265 251 235 227 230 231 227 222 219 216 212 204
338 335 333 336 332 329 325 314 308 308 301 296 291 283 276 266 251 247 242 238 247 260 228 213 244 244 244 264 256 234 222 223 218 220 220 216 210 198
330 323 322 328 327 327 325 322 321 319 304 297 293 289 284 281 271 260 256 255 250 255 240 221 235 232 242 255 253 230 222 212 210 213 210 209 210 204
325 326 327 330 330 329 331 331 330 320 307 301 296 292 283 279 280 280 280 278 278 264 243 237 233 230 231 243 238 217 218 218 207 205 199 196 191 183
325 323 327 328 329 327 330 331 328 320 316 303 299 295 292 286 285 284 286 285 287 286 266 251 239 229 241 239 233 232 213 203 195 195 187 186 178 175
325 321 321 325 330 328 324 322 321 322 321 311 308 309 308 301 294 283 279 278 276 281 289 278 247 245 255 243 233 226 217 213 197 184 179 186 186 180
339 333 330 330 329 328 327 324 322 321 319 317 315 313 312 308 302 295 282 277 278 276 272 261 231 262 282 284 233 220 216 212 189 180 179 185 190 180
347 333 329 329 327 324 321 319 318 318 316 314 311 310 310 309 306 302 296 290 286 282 274 257 228 228 240 256 263 214 203 191 176 182 186 184 187 178
336 330 327 326 325 324 321 319 317 317 315 314 312 310 310 309 309 306 302 295 293 293 287 269 245 241 241 242 235 234 193 180 174 177 167 137 120 147
332 329 327 326 325 322 320 318 316 314 315 315 313 312 311 310 309 307 306 303 302 296 291 284 267 253 248 187 166 154 125 145 150 159 152 143 140 152
328 326 324 323 322 319 317 315 316 316 317 315 313 312 310 306 305 308 308 305 302 298 299 297 280 260 239 214 191 158 127 103 103 108 102 126 156 173
326 323 321 319 318 316 317 318 318 316 314 312 312 313 313 307 303 301 302 300 299 300 304 309 318 323 256 184 169 150 139 131 118 104 75 74 97 109